Tracking 31027 objects as of 19-Jul-2025
HD Live streaming from Space Station
objects crossing your sky now

STARLINK-30402

Track STARLINK-30402 now!
10-day predictions
STARLINK-30402 is classified as:


NORAD ID: 57827
Int'l Code: 2023-138V
Perigee: 565.4 km
Apogee: 566.9 km
Inclination: 43.0 °
Period: 95.8 minutes
Semi major axis: 6937 km
RCS: Unknown
Launch date: September 9, 2023
Source: United States (US)
Launch site: AIR FORCE EASTERN TEST RANGE (AFETR)
Your satellite tracking list
THORAD DELTA 1 DEB
Track 1 satellite(s)




NASA's NSSDC Master Catalog

Two Line Element Set (TLE):
1 57827U 23138V   25198.98506412 -.00004693  00000-0 -33235-3 0  9999
2 57827  43.0033  71.1114 0001048 255.9563 104.1163 15.02557417103408
Source of the keplerian elements: AFSPC